Location: Cormont
(50.5693°N, 1.7416°E)
Time: 17:01:08
(UTC+00:00)

STARLINK-34 - Pass Details

Date: 21 October 2019
Orbit: 548 x 551 km, 53.0° (Epoch: 16 November)

Event Time Altitude Azimuth Distance (km) Brightness Sun altitude
Rises 19:18:07 0° 286° (WNW) 2,722 8.6 -24.2°
Reaches altitude 10° 19:20:21 10° 288° (WNW) 1,828 7.3 -24.5°
Enters shadow 19:23:53 61° 312° (NW) 630 4.0 -25.1°
